Weather History for Loreto, Mexico

Change the Weather History Date:

Saturday, September 14, 2013

  Actual Average Record
Temperature  
Mean Temperature 88 °F -  
Max Temperature 100 °F 92 °F 100 °F (2013)
Min Temperature 75 °F 82 °F 75 °F (2008)
Cooling Degree Days 22    
Growing Degree Days 38 (Base 50)    
Moisture  
Dew Point 69 °F    
Average Humidity 47    
Maximum Humidity 63    
Minimum Humidity 20    
Precipitation  
Precipitation 0.00 in - - ()
Sea Level Pressure  
Sea Level Pressure 29.57 in    
Wind  
Wind Speed 2 mph ()    
Max Wind Speed 7 mph    
Max Gust Speed -    
Visibility 10.0 miles    
Events      
Averages and records for this station are not official NWS values.
T = Trace of Precipitation, MM = Missing Value Source: Averaged Metar Reports

Daily Weather History Graph

Daily Weather History Graph

Search for Another Location

Airport:

Trip Planner

Search our weather history database for the weather conditions in past years. The results will help you decide how hot, cold, wet, or windy it might be!

Date:

Astronomy

Sep. 14, 2013 Rise Set
Actual Time 7:10 AM MDT 7:30 PM MDT
Civil Twilight 6:47 AM MDT 7:53 PM MDT
Nautical Twilight 6:20 AM MDT 8:20 PM MDT
Astronomical Twilight 5:53 AM MDT 8:47 PM MDT
Moon 3:53 PM MDT (9/14) 2:09 AM MDT (9/14)
Length of Visible Light 13h 05m
Length of Day
12h 19m
Waxing Gibbous, 73% of the Moon is Illuminated
Sep 14
Waxing Gibbous
Sep 19
Full
Sep 26
Last Quarter
Oct 4
New
Oct 11
First Quarter

Hourly Weather History & Observations

Time (MDT) Temp. Heat Index Dew Point Humidity Pressure Visibility Wind Dir Wind Speed Gust Speed Precip Events Conditions
2:45 AM 77 °F - 67 °F 63% 29.58 in 12 mi Calm Calm - -  
5:50 AM 77 °F - 65 °F 58% 29.57 in 12 mi Calm Calm - -  
7:11 AM 84.2 °F 88.4 °F 69.8 °F 62% 29.58 in 8.0 mi Calm Calm - N/A   Clear
7:43 AM 84.2 °F 85.0 °F 62.6 °F 48% 29.57 in 8.0 mi Calm Calm - N/A   Clear
8:41 AM 84.2 °F 85.0 °F 62.6 °F 48% 29.58 in 8.0 mi Calm Calm - N/A   Clear
8:50 AM 84 °F - 61 °F 36% 29.60 in 12 mi WSW 2.2 mph - -  
9:43 AM 87.8 °F 91.4 °F 68.0 °F 52% 29.60 in 8.0 mi Calm Calm - N/A   Clear
10:47 AM 95.0 °F 98.5 °F 66.2 °F 39% 29.60 in 8.0 mi Calm Calm - N/A   Clear
11:43 AM 95.0 °F 101.3 °F 69.8 °F 44% 29.60 in 8.0 mi Calm Calm - N/A   Clear
11:45 AM 99 °F - 62 °F 20% 29.60 in 12 mi NNW 4.5 mph - -  
12:43 PM 96.8 °F 105.1 °F 71.6 °F 44% 29.60 in 8.0 mi NE 6.9 mph - N/A   Clear
2:45 PM 98 °F - 68 °F 28% 29.56 in 12 mi ENE 6.7 mph - -  
2:47 PM 96.8 °F 105.1 °F 71.6 °F 44% 29.55 in 8.0 mi NNE 6.9 mph - N/A   Clear
3:42 PM 93.2 °F 102.4 °F 73.4 °F 52% 29.55 in 10.0 mi NE 6.9 mph - N/A   Clear
4:40 PM 93.2 °F 107.2 °F 77.0 °F 59% 29.54 in 10.0 mi NE 6.9 mph - N/A   Clear
5:40 PM 96.8 °F 109.6 °F 75.2 °F 50% 29.55 in 10.0 mi North 6.9 mph - N/A   Clear
5:55 PM 95 °F - 69 °F 34% 29.55 in 12 mi NE 2.2 mph - -  
6:40 PM 95.0 °F 109.7 °F 77.0 °F 56% 29.55 in 10.0 mi Calm Calm - N/A   Clear
8:45 PM 88 °F - 74 °F 56% 29.57 in 12 mi Calm Calm - -  
11:45 PM 85 °F - 72 °F 56% 29.58 in 12 mi Calm Calm - -